Location: Unspecified
(0.0000°N, 0.0000°E)
Time: 20:46:56
(UTC+00:00)

Explorer 11/Cluster Stage 4 - Visible Passes

Search period start: 27 July 2017 00:00
Search period end: 06 August 2017 00:00
Orbit: 467 x 1263 km, 28.8° (Epoch: 26 July)

Date Brightness Start Highest point End Pass type
(mag) Time Alt. Az. Time Alt. Az. Time Alt. Az.
27 Jul 8.9 03:15:52 27° SE 03:15:52 27° SE 03:21:10 10° E visible
27 Jul 7.6 04:58:03 21° SW 05:04:08 81° SSE 05:11:58 10° ENE visible
28 Jul 8.9 03:06:27 28° ESE 03:06:27 28° ESE 03:11:20 10° E visible
28 Jul 7.5 04:48:39 26° WSW 04:53:49 88° NNW 05:01:48 10° ENE visible
29 Jul 9.0 02:57:03 28° ESE 02:57:03 28° ESE 03:01:23 10° E visible
29 Jul 7.5 04:39:15 32° WSW 04:43:30 76° NNW 04:51:34 10° NE visible
30 Jul 9.1 02:47:39 27° E 02:47:39 27° E 02:51:22 10° E visible
30 Jul 7.6 04:29:50 38° W 04:33:11 66° NNW 04:41:16 10° NE visible
31 Jul 9.2 02:38:13 24° E 02:38:13 24° E 02:41:16 10° ENE visible
31 Jul 7.8 04:20:24 42° W 04:22:52 56° NNW 04:30:54 10° NE visible
01 Aug 9.4 02:28:45 20° ENE 02:28:45 20° ENE 02:31:06 10° ENE visible
01 Aug 7.9 04:10:57 43° WNW 04:12:35 48° NNW 04:20:29 10° NE visible
02 Aug 9.6 02:19:16 17° ENE 02:19:16 17° ENE 02:20:52 10° ENE visible
02 Aug 8.1 04:01:27 40° NW 04:02:20 41° NNW 04:09:59 10° NE visible
03 Aug 9.8 02:09:46 13° ENE 02:09:46 13° ENE 02:10:33 10° ENE visible
03 Aug 8.3 03:51:56 35° NNW 03:52:06 35° NNW 03:59:27 10° NE visible
03 Aug 9.5 05:39:07 10° NW 05:42:31 13° NNW 05:45:54 10° N visible
04 Aug 8.6 03:42:23 29° NNW 03:42:23 29° NNW 03:48:51 10° NNE visible
04 Aug 9.6 05:30:19 10° NW 05:32:30 11° NNW 05:34:42 10° N visible
05 Aug 8.9 03:32:48 24° NNW 03:32:48 24° NNW 03:38:10 10° NNE visible
